Location: ?????????
(54.7065°N, 38.6663°E)
Time: 13:38:42
(UTC+00:00)

Daily predictions for brighter satellites

Satellite Brightness Start Highest point End
(mag) Time Altitude Azimuth Time Altitude Azimuth Time Altitude Azimuth
Cosmos 1464 Rocket 4.0 13:33:45 10° S 13:39:55 83° E 13:46:05 10° NNE
Cosmos 1892 Rocket 3.6 13:35:32 10° N 13:40:01 72° ENE 13:44:27 10° SSE
SMAP 3.7 13:36:03 10° SE 13:40:12 33° ENE 13:44:22 10° N
Thor Agena Rocket 3.9 13:36:10 10° SE 13:41:06 44° ENE 13:46:00 10° N
Cosmos 2297 Rocket 2.6 13:38:41 10° NNW 13:44:05 42° NE 13:49:27 10° ESE
Cosmos 2151 4.2 13:44:22 10° NNE 13:47:28 20° ENE 13:50:33 10° ESE
Cosmos 1741 Rocket 4.1 13:43:29 10° SSW 13:48:48 89° WNW 13:54:10 10° NNE
Aureole 3 Rocket 4.3 13:45:27 10° SSW 13:49:48 53° WNW 13:55:54 10° N
Cosmos 1092 Rocket 4.0 13:45:10 10° N 13:51:22 72° ENE 13:57:29 10° SSE
CZ-2D R/B 4.1 13:49:25 10° ESE 13:51:44 19° ENE 13:54:05 10° NNE
BlueWalker 3 2.7 13:51:08 10° W 13:54:39 49° SSW 13:58:10 10° ESE
Meteor 2-1 Rocket 4.4 13:50:23 10° S 13:56:19 83° ESE 14:02:12 10° NNE
Cosmos 1743 3.5 13:56:18 10° NNE 13:58:53 21° ENE 14:01:28 10° ESE
Lacrosse 4 Rocket 1.7 13:55:29 10° SSW 13:59:24 47° ESE 14:03:13 10° NE
ATLAS CENTAUR R/B 0.8 13:57:23 10° NW 14:00:39 55° NE 14:03:49 10° ESE
CZ-4C R/B 2.8 13:55:55 10° NW 14:02:06 61° NNE 14:10:02 10° ESE
Cosmos 1484 Rocket 2.4 14:00:03 10° SSE 14:03:35 83° ENE 14:07:07 10° NNW
Iridium 45 4.1 14:02:22 10° S 14:05:31 74° E 14:08:44 10° N
Cosmos 724 4.4 14:01:16 10° NW 14:07:21 64° NE 14:13:17 10° ESE
Cosmos 2034 Rocket 4.1 14:01:20 10° S 14:07:40 88° E 14:14:05 10° NNE
JB-3 4.1 14:04:16 10° NNE 14:07:59 84° ESE 14:11:38 10° SSW
Meteor 1-28 Rocket 3.4 14:06:34 10° NNE 14:09:45 39° E 14:12:55 10° S
NOSS 3-3 (A) 4.5 14:05:21 10° NW 14:12:19 81° NE 14:20:45 10° SE
Iridium 51 4.0 14:09:23 10° SSE 14:12:23 46° E 14:15:29 10° NNE
MOS 1 Rocket 3.9 14:10:17 10° SE 14:14:48 38° ENE 14:19:33 10° N
Cosmos 1602 Rocket 4.1 14:10:56 10° N 14:15:00 35° ENE 14:19:02 10° SE
Cosmos 1570 Rocket 4.0 14:09:47 10° NNW 14:15:11 83° ENE 14:20:31 10° SSE
Cosmos 1867 3.8 14:10:01 10° NW 14:15:22 51° NNE 14:20:41 10° ESE
IGS 5A 3.3 14:12:34 10° SSE 14:16:32 87° ENE 14:20:33 10° NNW
Cosmos 1455 Rocket 3.0 14:12:51 10° S 14:17:11 88° WNW 14:21:35 10° NNE
Lacrosse 5 rocket 1.8 14:15:04 10° SW 14:18:36 40° SE 14:21:16 15° E
Cosmos 1844 Rocket 4.3 14:15:14 10° NNW 14:18:48 17° NNE 14:21:38 12° NE
Cosmos 2084 3.5 14:14:57 10° SW 14:19:07 65° SE 14:22:25 15° ENE
CENTAUR R/B 2.6 14:14:18 10° SW 14:20:03 71° SE 14:26:39 13° NE
IRS-P3 4.4 14:15:33 10° SE 14:20:34 45° ENE 14:25:37 10° N
Cosmos 2084 Rocket 3.5 14:17:13 10° NW 14:21:22 55° NNE 14:25:31 10° ESE
SAR-Lupe-4 3.8 14:18:09 10° SE 14:21:33 45° ENE 14:24:59 10° N
Cosmos 836 Rocket 4.5 14:18:29 10° NNW 14:23:46 86° ENE 14:29:01 10° SSE
Cosmos 2266 Rocket 4.2 14:19:44 10° N 14:25:43 46° ENE 14:31:33 10° SE
Cosmos 2263 Rocket 3.0 14:20:53 10° NNW 14:25:52 30° NE 14:30:18 12° E
Cosmos 292 Rocket 3.9 14:21:31 10° SSW 14:26:19 78° WNW 14:31:09 10° NNE
Cosmos 1315 Rocket 2.6 14:22:50 10° S 14:26:40 75° E 14:30:31 10° NNE
Resurs 01 Rocket 3.5 14:28:00 12° NE 14:28:00 12° NE 14:29:01 10° NNE
SL-16 R/B 2.5 14:21:14 10° NNE 14:27:31 78° ESE 14:33:44 10° SSW
Cosmos 1607 3.9 14:22:19 10° NW 14:28:34 79° NE 14:34:52 10° SE
SAR-Lupe-1 4.3 14:25:15 10° SE 14:28:43 47° ENE 14:32:14 10° N
SJ 16-02 3.7 14:26:15 10° WNW 14:28:48 15° NW 14:31:20 10° N
CZ-2D R/B 4.4 14:25:40 10° ESE 14:29:10 26° ENE 14:32:40 10° N
NOSS 7 (H) 4.5 14:26:27 10° NW 14:29:18 41° NNE 14:31:04 19° E
YAOGAN 1 3.5 14:29:12 10° ESE 14:32:39 24° ENE 14:36:07 10° N
Intercosmos 24 3.8 14:29:24 10° NNW 14:33:49 90° ESE 14:37:24 10° S
Cosmos 2227 Rocket 2.5 14:29:37 10° NNW 14:35:03 45° NE 14:40:27 10° ESE
Cosmos 1782 2.9 14:31:51 10° SSE 14:35:15 41° E 14:37:56 15° NNE
USA 215 3.3 14:29:44 13° E 14:35:36 74° N 14:42:09 10° W
CORIOLIS 4.2 14:32:02 10° SSE 14:37:22 87° WSW 14:42:45 10° NNW
USA 281 4.5 14:38:01 16° NE 14:40:47 21° NNE 14:45:26 10° NNW
Cosmos 1356 Rocket 3.4 14:36:49 10° SSW 14:40:52 84° WNW 14:44:59 10° NNE
Cosmos 405 Rocket 2.7 14:37:47 10° NNW 14:41:03 65° W 14:44:15 10° S
Cosmos 773 Rocket 4.0 14:36:20 10° NNW 14:41:33 86° WSW 14:46:48 10° SSE
Cosmos 2369 Rocket 3.1 14:36:57 10° WSW 14:42:19 43° NW 14:47:43 10° NNE
Cosmos 1733 1.6 14:43:22 10° NNW 14:45:19 72° WSW 14:47:13 10° S
SJ-12 3.6 14:43:04 10° SSE 14:46:49 76° ENE 14:50:38 10° NNW
SJ-6F 4.3 14:44:50 10° SSE 14:48:45 61° ENE 14:52:44 10° N
Cosmos 2208 Rocket 4.1 14:43:48 10° NNW 14:48:58 77° WSW 14:54:08 10° SSE
Cosmos 1825 Rocket 4.0 14:45:19 10° N 14:49:26 38° ENE 14:53:29 10° SE
ARIANE 5 R/B 2.5 14:44:25 10° SSE 14:49:28 90° WSW 14:54:38 10° NNW
Cosmos 1933 4.4 14:47:00 10° SE 14:49:46 23° E 14:49:46 23° E
Cosmos 1758 Rocket 3.6 14:46:21 10° NNW 14:50:41 80° W 14:54:58 10° S
Cosmos 2278 Rocket 4.1 14:47:08 10° WNW 14:50:54 18° NNW 14:54:37 10° NNE
Cosmos 1943 Rocket 4.1 14:47:43 10° NW 14:51:14 17° NNW 14:54:44 10° NNE
SPOT 1/Viking Rocket 3.7 14:47:06 10° SE 14:52:07 52° ENE 14:57:12 10° N
GEOS 3 Rocket 3.7 14:48:18 19° NE 14:52:13 74° SE 14:57:36 10° SW
Cosmos 2228 3.1 14:48:03 10° SSW 14:52:17 75° WNW 14:56:34 10° N
Cosmos 2098 Rocket 3.0 14:52:54 10° S 14:56:52 63° E 15:01:36 10° NNE
Cosmos 1697 Rocket 3.7 14:53:20 10° SSE 14:57:40 24° ESE 14:58:26 23° E
Meteor 1-20 Rocket 4.0 14:53:41 10° NNW 14:59:12 76° ENE 15:04:39 10° SSE
BREEZE-M DEB (TANK) 3.5 14:57:08 10° WSW 15:00:01 45° S 15:05:50 15° ESE
AQUARIUS 4.1 15:02:14 10° SSE 15:06:39 83° WSW 15:11:06 10° NNW
NOSS 2-2 (C) 2.5 15:06:39 10° SW 15:09:46 85° SE 15:10:15 60° ENE
NOSS 3-2 (C) 3.8 15:09:03 10° S 15:13:40 35° ESE 15:15:10 30° E
USA 290 2.9 15:10:36 10° NW 15:13:50 56° WSW 15:17:01 10° SSE
NOSS 3-2 (A) 3.2 15:10:01 10° SW 15:15:08 71° SE 15:18:17 29° ENE
Cosmos 1655 Rocket 4.0 15:10:00 10° N 15:16:10 57° ENE 15:22:17 10° SSE
Cosmos 783 Rocket 4.5 15:11:55 10° NNW 15:17:16 90° W 15:22:35 10° SSE
SMAP 4.3 15:13:01 10° S 15:17:28 44° W 15:21:58 10° NNW
Cosmos 2082 4.3 15:14:16 10° NNW 15:19:34 37° NE 15:20:46 33° ENE
Cosmos 1241 Rocket 4.4 15:13:19 10° SSW 15:19:38 70° SE 15:22:58 29° NE
Cosmos 1538 Rocket 4.2 15:17:58 10° NNW 15:23:05 49° NE 15:25:01 33° ESE
CZ-2D R/B 4.3 15:20:32 10° SSW 15:23:29 37° W 15:26:28 10° NNW
Cosmos 2151 3.4 15:20:34 10° NNW 15:24:40 60° W 15:28:45 10° S
Cosmos 1606 Rocket 3.6 15:22:46 10° S 15:27:03 53° E 15:27:45 47° ENE
Cosmos 2297 Rocket 3.0 15:22:47 10° NW 15:28:18 52° WSW 15:33:45 10° S
UNK 4.2 15:24:06 10° N 15:28:38 59° WNW 15:33:07 10° SSW
Meteor 1-25 Rocket 4.3 15:23:10 10° NNW 15:29:02 85° W 15:34:51 10° S
BREEZE-M DEB (TANK) 4.2 15:25:52 10° WSW 15:29:11 50° S 15:33:46 23° ESE
Cosmos 1076 Rocket 3.4 15:26:17 10° N 15:30:32 59° ENE 15:32:39 28° SE
Okean 1-7 Rocket 3.7 15:27:05 10° NNW 15:31:30 72° W 15:35:51 10° S
BlueWalker 3 4.4 15:29:07 10° W 15:31:38 18° SW 15:34:07 10° S
Cosmos 1743 4.1 15:29:34 10° NNW 15:32:33 32° W 15:35:29 10° SSW
Cosmos 1656 3.6 15:28:25 10° SSW 15:34:04 90° W 15:37:03 30° NNE
Resurs 1-3 3.4 15:29:57 10° SSE 15:34:14 75° ENE 15:38:34 10° NNW
ATLAS CENTAUR R/B 3.3 15:32:41 10° WNW 15:35:14 21° WSW 15:37:42 10° S
Cosmos 1544 Rocket 4.4 15:31:47 10° SSW 15:36:05 50° WNW 15:40:20 10° N
Cosmos 1503 Rocket 3.9 15:31:18 10° S 15:36:28 62° ESE 15:37:54 44° NE
Lacrosse 4 Rocket 2.6 15:33:40 10° WSW 15:37:23 34° NW 15:38:43 27° N
Meteor 2-10 4.1 15:32:15 10° N 15:37:25 54° ENE 15:39:46 31° SE
OceanSat 1 rocket 4.5 15:34:05 10° SSE 15:38:48 71° ENE 15:43:32 10° NNW
Cosmos 2219 3.3 15:36:33 10° NNW 15:42:11 54° NE 15:43:14 47° E
Cosmos 1461 4.0 15:39:00 10° SSW 15:41:17 28° SSE 15:41:17 28° SSE
SJ-7 4.1 15:42:23 61° SSE 15:43:01 88° W 15:46:47 10° NNW
Cosmos 1354 Rocket 4.1 15:38:12 10° S 15:43:18 52° ESE 15:43:36 51° E
Meteor 1-5 Rocket 4.0 15:38:56 10° NNW 15:44:16 87° ENE 15:49:41 10° SSE
SKYMED 2 3.4 15:45:54 68° NE 15:46:19 75° ESE 15:50:39 10° S
Spot 4 Rocket 4.0 15:41:39 10° SSE 15:46:47 82° WSW 15:51:56 10° NNW
CZ-4C R/B 3.4 15:44:03 10° NW 15:50:40 59° SW 15:58:55 10° SSE
COSMO-SKYMED 1 3.8 15:52:52 27° S 15:52:52 27° S 15:54:52 10° S
SL-19 R/B 4.2 15:47:29 10° SSE 15:52:51 84° WSW 15:58:32 10° NNW
Cosmos 1726 Rocket 3.6 15:49:08 10° S 15:53:23 67° SE 15:53:23 67° SE
PSLV R/B 3.4 15:52:38 34° S 15:54:17 78° WSW 15:58:22 10° NNW
Lacrosse 5 rocket 1.6 15:51:47 10° W 15:54:52 56° WNW 15:54:52 56° WNW
Cosmos 44 Rocket 4.3 15:52:14 10° NW 15:56:25 34° N 15:56:25 34° N
Cosmos 2084 4.3 15:54:04 10° W 15:58:00 38° NNW 15:58:08 38° NNW
Cosmos 1777 Rocket 4.0 15:53:24 10° SSW 15:58:40 83° WNW 16:00:11 48° NNE
Cosmos 1867 4.3 15:53:45 10° NW 15:59:02 51° SW 16:03:16 16° SSE
Cosmos 1980 Rocket 3.9 15:54:08 10° SSE 15:55:56 19° SSE 15:55:56 19° SSE
Resurs 01 Rocket 3.4 16:05:25 21° N 16:05:25 21° N 16:06:56 10° N
CZ-2D R/B 4.4 15:59:49 10° S 16:03:54 48° W 16:07:58 10° NNW
Cosmos 1844 Rocket 3.7 15:59:19 10° NNW 16:03:16 31° NNE 16:03:16 31° NNE
YAOGAN 1 3.2 16:04:05 10° S 16:08:15 53° W 16:12:27 10° NNW
Cosmos 2263 Rocket 2.2 16:04:43 10° NW 16:10:25 83° WSW 16:12:02 49° SSE
SL-16 R/B 4.2 16:05:19 10° N 16:10:35 29° NW 16:15:48 10° WSW
CENTAUR R/B 3.2 16:04:54 10° W 16:11:04 53° NNW 16:13:45 37° NNE
Cosmos 1953 Rocket 4.0 16:10:32 10° NNW 16:14:55 61° W 16:16:13 41° SSW
Nadezhda 2 Rocket 4.3 16:10:01 10° N 16:16:12 75° ENE 16:17:08 63° SE
Cosmos 2360 4.5 16:11:39 10° SW 16:17:21 66° NW 16:18:51 47° N
USA 81 4.1 16:12:36 10° N 16:17:54 78° W 16:23:09 10° S
USA 215 3.2 16:17:05 57° ESE 16:18:37 84° SSW 16:25:13 10° WNW
Cosmos 2227 Rocket 3.1 16:13:47 10° NW 16:19:11 48° WSW 16:24:34 10° S
USA 281 3.6 16:24:53 46° NNE 16:24:53 46° NNE 16:30:19 10° NNW
Cosmos 2369 Rocket 4.1 16:23:54 10° WNW 16:27:52 19° NNW 16:29:28 17° N
GEOS 3 Rocket 4.4 16:29:20 42° N 16:30:01 44° NNW 16:35:06 10° W
Cosmos 1943 Rocket 4.2 16:33:57 10° NNW 16:36:13 15° N 16:36:13 15° N
Cosmos 2278 Rocket 4.2 16:33:48 10° NNW 16:36:26 16° N 16:36:26 16° N
Cosmos 1697 Rocket 2.9 16:35:25 10° SW 16:40:12 65° SW 16:40:12 65° SW
Cosmos 2082 4.5 16:58:22 10° NW 17:02:38 48° WNW 17:02:38 48° WNW
NOSS 3-2 (C) 4.0 16:58:42 10° WSW 17:02:36 50° W 17:02:36 50° W
NOSS 3-2 (A) 4.1 17:00:54 10° W 17:05:38 46° NW 17:05:38 46° NW
Lacrosse 4 Rocket 4.5 17:14:06 10° NW 17:14:13 10° NW 17:14:13 10° NW
Cosmos 2263 Rocket 4.5 17:49:43 10° WNW 17:53:31 19° W 17:53:45 19° WSW
CENTAUR R/B 4.0 17:56:27 10° WNW 18:00:51 36° NW 18:00:51 36° NW
